BVX1899 PHNL-CYYC

Flight info

Callsign BVX1899
Flight time N/A
Altitude 33000
Route MKK5 APACK R463 AUNTI A332 HALLI/N0456F350 A332 HEKAB DCT ZANNG/N0451F370 A331 SEDAR C1418 HQM DCT TWISP DCT MENBO Q983 NORET IGVEP7
Aircraft B738/M-SDE2E3FGHIRWXY/LB1

Departure

Time 2026-05-06 21:30
Airport Daniel K. Inouye International Airport (PHNL)

Arrival

Time N/A
Airport Calgary International Airport (CYYC)
Time Latitude Longitude Altitude Speed Heading
2026-05-06 20:54 21.32867 -157.91569 25 ft 0 kts
2026-05-06 21:19 21.32865 -157.91569 23 ft 3 kts
2026-05-06 21:19 21.32839 -157.91570 25 ft 4 kts
2026-05-06 21:20 21.32816 -157.91571 23 ft 2 kts 360°
2026-05-06 21:20 21.32791 -157.91574 24 ft 4 kts 30°
2026-05-06 21:20 21.32775 -157.91593 25 ft 4 kts 77°
2026-05-06 21:20 21.32773 -157.91619 23 ft 4 kts 90°
2026-05-06 21:21 21.32773 -157.91634 23 ft 0 kts 90°
2026-05-06 21:23 21.32773 -157.91610 23 ft 7 kts 90°
2026-05-06 21:23 21.32773 -157.91523 25 ft 16 kts 90°
2026-05-06 21:23 21.32773 -157.91398 23 ft 17 kts 90°
2026-05-06 21:24 21.32763 -157.91311 26 ft 11 kts 132°
2026-05-06 21:24 21.32688 -157.91307 25 ft 12 kts 189°
2026-05-06 21:24 21.32586 -157.91324 25 ft 16 kts 191°
2026-05-06 21:24 21.32495 -157.91393 24 ft 19 kts 231°
2026-05-06 21:25 21.32401 -157.91527 27 ft 26 kts 233°
2026-05-06 21:25 21.32278 -157.91700 25 ft 32 kts 233°
2026-05-06 21:25 21.32133 -157.91908 23 ft 37 kts 233°
2026-05-06 21:25 21.31976 -157.92134 23 ft 37 kts 233°
2026-05-06 21:26 21.31872 -157.92272 23 ft 11 kts 229°
2026-05-06 21:26 21.31803 -157.92284 24 ft 11 kts 150°
2026-05-06 21:26 21.31729 -157.92225 25 ft 17 kts 143°
2026-05-06 21:26 21.31636 -157.92151 23 ft 12 kts 145°
2026-05-06 21:27 21.31567 -157.92173 26 ft 11 kts 229°
2026-05-06 21:27 21.31513 -157.92249 24 ft 16 kts 233°
2026-05-06 21:27 21.31429 -157.92368 25 ft 24 kts 233°
2026-05-06 21:27 21.31322 -157.92520 26 ft 21 kts 232°
2026-05-06 21:28 21.31289 -157.92602 23 ft 11 kts 286°
2026-05-06 21:28 21.31342 -157.92659 23 ft 11 kts 322°
2026-05-06 21:28 21.31410 -157.92677 24 ft 10 kts 24°
2026-05-06 21:28 21.31441 -157.92644 26 ft 0 kts 53°
2026-05-06 21:29 21.31472 -157.92600 25 ft 29 kts 53°
2026-05-06 21:29 21.31755 -157.92199 23 ft 104 kts 53°
2026-05-06 21:29 21.32330 -157.91388 24 ft 167 kts 52°
2026-05-06 21:29 21.33086 -157.90273 445 ft 192 kts 53°
2026-05-06 21:30 21.33592 -157.89005 1422 ft 185 kts 89°
2026-05-06 21:30 21.33205 -157.87661 2071 ft 204 kts 128°
2026-05-06 21:30 21.31991 -157.86825 2267 ft 223 kts 169°
2026-05-06 21:30 21.30386 -157.86890 2499 ft 239 kts 189°
2026-05-06 21:31 21.28708 -157.87158 2919 ft 250 kts 189°
2026-05-06 21:31 21.26906 -157.87272 3210 ft 270 kts 167°
2026-05-06 21:31 21.25258 -157.86324 3875 ft 273 kts 132°
2026-05-06 21:31 21.24388 -157.84535 4564 ft 274 kts 99°
2026-05-06 21:32 21.24151 -157.82497 5261 ft 278 kts 97°
2026-05-06 21:32 21.23605 -157.78357 6586 ft 285 kts 99°
2026-05-06 21:32 21.23302 -157.76236 7227 ft 289 kts 99°
2026-05-06 21:33 21.22985 -157.74100 7864 ft 292 kts 99°
2026-05-06 21:33 21.22660 -157.71968 8495 ft 295 kts 100°
2026-05-06 21:33 21.22323 -157.69785 9129 ft 298 kts 100°
2026-05-06 21:33 21.21977 -157.67574 9771 ft 301 kts 100°
2026-05-06 21:34 21.21624 -157.65336 10294 ft 309 kts 100°
2026-05-06 21:34 21.21256 -157.63019 10426 ft 329 kts 100°
2026-05-06 21:34 21.20859 -157.60528 10580 ft 348 kts 100°
2026-05-06 21:34 21.20439 -157.57901 10713 ft 366 kts 100°
2026-05-06 21:35 21.19999 -157.55149 10888 ft 380 kts 100°
2026-05-06 21:35 21.19554 -157.52368 11280 ft 386 kts 101°
2026-05-06 21:35 21.19100 -157.49529 11844 ft 387 kts 101°
2026-05-06 21:35 21.18640 -157.46660 12302 ft 392 kts 101°
2026-05-06 21:36 21.18177 -157.43771 12760 ft 396 kts 101°
2026-05-06 21:36 21.17706 -157.40841 13275 ft 398 kts 101°
2026-05-06 21:36 21.17240 -157.37945 13734 ft 401 kts 101°
2026-05-06 21:36 21.16762 -157.34980 14164 ft 405 kts 101°
2026-05-06 21:37 21.16281 -157.31997 14606 ft 406 kts 101°
2026-05-06 21:37 21.15798 -157.29006 15064 ft 408 kts 101°
2026-05-06 21:37 21.15318 -157.26037 15502 ft 410 kts 101°
2026-05-06 21:37 21.15020 -157.22990 15877 ft 415 kts 87°
2026-05-06 21:38 21.15689 -157.19981 16310 ft 417 kts 65°
2026-05-06 21:38 21.17247 -157.17368 16747 ft 417 kts 46°
2026-05-06 21:38 21.19481 -157.15380 17094 ft 419 kts 29°
2026-05-06 21:38 21.22138 -157.14211 17469 ft 418 kts 14°
2026-05-06 21:39 21.24954 -157.13405 17917 ft 419 kts 13°
2026-05-06 21:39 21.27801 -157.12629 18285 ft 422 kts 12°
2026-05-06 21:39 21.30667 -157.11852 18626 ft 425 kts 13°
2026-05-06 21:39 21.33510 -157.11070 18961 ft 427 kts 13°
2026-05-06 21:40 21.36392 -157.10264 19298 ft 429 kts 13°
2026-05-06 21:40 21.39286 -157.09445 19665 ft 430 kts 13°
2026-05-06 21:40 21.42194 -157.08614 19988 ft 432 kts 14°
2026-05-06 21:40 21.45063 -157.07790 20300 ft 434 kts 14°
2026-05-06 21:41 21.48003 -157.06944 20635 ft 436 kts 14°
2026-05-06 21:41 21.50942 -157.06098 20974 ft 437 kts 14°
2026-05-06 21:41 21.53894 -157.05249 21277 ft 439 kts 14°
2026-05-06 21:41 21.56825 -157.04408 21558 ft 441 kts 14°
2026-05-06 21:42 21.59808 -157.03551 21863 ft 443 kts 14°
2026-05-06 21:42 21.62802 -157.02689 22169 ft 445 kts 14°
2026-05-06 21:42 21.65762 -157.01836 22470 ft 446 kts 14°
2026-05-06 21:42 21.68773 -157.00968 22756 ft 448 kts 14°
2026-05-06 21:43 21.71805 -157.00095 23019 ft 451 kts 15°
2026-05-06 21:43 21.74845 -156.99219 23315 ft 452 kts 14°
2026-05-06 21:43 21.77895 -156.98339 23557 ft 455 kts 14°
2026-05-06 21:43 21.80958 -156.97456 23803 ft 456 kts 14°
2026-05-06 21:44 21.83993 -156.96580 24031 ft 458 kts 14°
2026-05-06 21:44 21.87077 -156.95690 24294 ft 458 kts 14°
2026-05-06 21:44 21.90166 -156.94800 24550 ft 459 kts 14°
2026-05-06 21:44 21.93261 -156.93907 24783 ft 460 kts 14°
2026-05-06 21:45 21.96360 -156.93012 25009 ft 461 kts 14°
2026-05-06 21:45 21.99437 -156.92124 25237 ft 463 kts 14°
2026-05-06 21:45 22.02548 -156.91225 25459 ft 464 kts 14°
2026-05-06 21:45 22.05667 -156.90323 25705 ft 464 kts 14°
2026-05-06 21:46 22.08794 -156.89419 25953 ft 465 kts 14°
2026-05-06 21:46 22.11935 -156.88511 26165 ft 466 kts 14°
2026-05-06 21:46 22.15033 -156.87614 26371 ft 467 kts 14°
2026-05-06 21:46 22.18184 -156.86699 26590 ft 469 kts 14°
2026-05-06 21:47 22.21338 -156.85784 26805 ft 470 kts 13°
2026-05-06 21:47 22.24501 -156.84869 27011 ft 471 kts 13°
2026-05-06 21:47 22.27682 -156.83946 27215 ft 472 kts 13°
2026-05-06 21:47 22.30812 -156.83034 27424 ft 473 kts 14°
2026-05-06 21:48 22.34004 -156.82108 27630 ft 474 kts 13°
2026-05-06 21:48 22.37190 -156.81184 27801 ft 475 kts 13°
2026-05-06 21:48 22.40394 -156.80253 27990 ft 477 kts 13°
2026-05-06 21:48 22.43604 -156.79320 28213 ft 477 kts 13°
2026-05-06 21:49 22.46774 -156.78396 28507 ft 475 kts 13°
2026-05-06 21:49 22.49970 -156.77459 28842 ft 474 kts 14°
2026-05-06 21:49 22.53152 -156.76521 29146 ft 472 kts 14°
2026-05-06 21:49 22.56324 -156.75585 29422 ft 472 kts 14°
2026-05-06 21:50 22.59454 -156.74661 29703 ft 471 kts 14°
2026-05-06 21:50 22.62596 -156.73734 30020 ft 470 kts 13°
2026-05-06 21:50 22.65773 -156.72797 30310 ft 469 kts 13°
2026-05-06 21:50 22.68924 -156.71867 30564 ft 468 kts 13°
2026-05-06 21:51 22.72067 -156.70939 30809 ft 468 kts 13°
2026-05-06 21:51 22.75211 -156.70010 31052 ft 467 kts 13°
2026-05-06 21:51 22.78347 -156.69087 31308 ft 466 kts 13°
2026-05-06 21:51 22.81442 -156.68183 31566 ft 465 kts 13°
2026-05-06 21:52 22.84566 -156.67274 31815 ft 464 kts 13°
2026-05-06 21:52 22.87689 -156.66365 32069 ft 463 kts 13°
2026-05-06 21:52 22.90773 -156.65467 32324 ft 463 kts 13°
2026-05-06 21:52 22.93878 -156.64562 32578 ft 461 kts 13°
2026-05-06 21:53 22.96974 -156.63658 32824 ft 461 kts 13°
2026-05-06 21:53 23.00074 -156.62753 33048 ft 460 kts 13°
2026-05-06 21:53 23.03165 -156.61849 33278 ft 460 kts 13°
2026-05-06 21:53 23.06249 -156.60946 33517 ft 459 kts 13°
2026-05-06 21:54 23.09326 -156.60046 33745 ft 458 kts 13°
2026-05-06 21:54 23.12367 -156.59155 33959 ft 457 kts 13°
2026-05-06 21:54 23.15475 -156.58245 34164 ft 457 kts 13°
2026-05-06 21:54 23.18510 -156.57355 34346 ft 456 kts 13°
2026-05-06 21:55 23.21586 -156.56453 34513 ft 456 kts 13°
2026-05-06 21:55 23.24654 -156.55553 34690 ft 455 kts 13°
2026-05-06 21:55 23.27678 -156.54665 34848 ft 455 kts 13°
2026-05-06 21:55 23.30738 -156.53767 35000 ft 455 kts 13°
2026-05-06 21:56 23.36874 -156.51964 35091 ft 458 kts 13°
2026-05-06 21:56 23.42976 -156.50169 35099 ft 455 kts 13°
2026-05-06 21:57 23.49088 -156.48368 35104 ft 453 kts 13°
2026-05-06 21:57 23.55159 -156.46578 35099 ft 451 kts 13°
2026-05-06 21:58 23.61178 -156.44803 35102 ft 450 kts 13°
2026-05-06 21:58 23.67227 -156.43017 35100 ft 449 kts 13°
2026-05-06 21:59 23.73241 -156.41239 35108 ft 450 kts 13°
2026-05-06 21:59 23.79306 -156.39446 35105 ft 452 kts 12°
2026-05-06 22:00 23.85389 -156.37644 35107 ft 453 kts 12°
2026-05-06 22:00 23.91468 -156.35841 35110 ft 455 kts 12°
2026-05-06 22:01 23.97600 -156.34021 35102 ft 457 kts 12°
2026-05-06 22:01 24.03547 -156.31513 35110 ft 464 kts 31°
2026-05-06 22:02 24.06052 -156.29327 35102 ft 470 kts 43°
2026-05-06 22:02 24.08135 -156.26556 35113 ft 473 kts 52°
2026-05-06 22:02 24.11902 -156.20606 35110 ft 475 kts 53°
2026-05-06 22:03 24.15630 -156.14676 35100 ft 476 kts 52°
2026-05-06 22:03 24.19436 -156.08719 35103 ft 476 kts 52°
2026-05-06 22:04 24.23226 -156.02831 35097 ft 475 kts 52°
2026-05-06 22:04 24.27044 -155.96900 35104 ft 475 kts 52°
2026-05-06 22:05 24.30833 -155.91007 35100 ft 475 kts 52°
2026-05-06 22:05 24.34638 -155.85078 35102 ft 474 kts 52°
2026-05-06 22:06 24.38405 -155.79199 35100 ft 474 kts 52°
2026-05-06 22:06 24.42192 -155.73282 35101 ft 473 kts 52°
2026-05-06 22:07 24.45958 -155.67392 35102 ft 473 kts 52°
2026-05-06 22:07 24.49741 -155.61467 35107 ft 473 kts 52°
2026-05-06 22:08 24.53497 -155.55579 35102 ft 473 kts 52°
2026-05-06 22:08 24.57283 -155.49635 35100 ft 473 kts 52°
2026-05-06 22:09 24.61039 -155.43732 35097 ft 474 kts 52°
2026-05-06 22:09 24.64812 -155.37794 35097 ft 474 kts 52°
2026-05-06 22:10 24.68597 -155.31829 35097 ft 475 kts 52°
2026-05-06 22:10 24.72405 -155.25947 35099 ft 474 kts 47°
2026-05-06 22:11 24.76985 -155.20779 35096 ft 471 kts 40°
2026-05-06 22:11 24.81700 -155.15826 35095 ft 471 kts 40°
2026-05-06 22:12 24.86431 -155.10805 35092 ft 472 kts 41°
2026-05-06 22:12 24.91141 -155.05732 35093 ft 473 kts 41°
2026-05-06 22:13 24.95807 -155.00673 35102 ft 473 kts 41°
2026-05-06 22:13 25.00509 -154.95565 35086 ft 474 kts 41°
2026-05-06 22:14 25.05175 -154.90493 35089 ft 474 kts 41°
2026-05-06 22:14 25.09850 -154.85406 35090 ft 474 kts 41°
2026-05-06 22:15 25.14553 -154.80285 35092 ft 474 kts 41°
2026-05-06 22:15 25.19245 -154.75169 35112 ft 473 kts 41°
2026-05-06 22:16 25.23913 -154.70075 35096 ft 474 kts 41°
2026-05-06 22:16 25.28581 -154.64973 35096 ft 474 kts 41°
2026-05-06 22:17 25.33265 -154.59848 35091 ft 474 kts 41°
2026-05-06 22:17 25.37942 -154.54726 35082 ft 474 kts 41°
2026-05-06 22:18 25.42634 -154.49581 35099 ft 474 kts 40°
2026-05-06 22:18 25.47323 -154.44433 35085 ft 474 kts 41°
2026-05-06 22:19 25.51991 -154.39303 35089 ft 475 kts 41°
2026-05-06 22:19 25.56676 -154.34148 35089 ft 475 kts 41°
2026-05-06 22:20 25.61337 -154.29013 35080 ft 475 kts 41°
2026-05-06 22:20 25.66042 -154.23823 35097 ft 475 kts 41°
2026-05-06 22:21 25.70709 -154.18669 35089 ft 476 kts 41°
2026-05-06 22:21 25.75411 -154.13472 35088 ft 476 kts 41°
2026-05-06 22:22 25.80077 -154.08307 35087 ft 477 kts 41°
2026-05-06 22:22 25.84781 -154.03095 35078 ft 478 kts 41°
2026-05-06 22:23 25.89491 -153.97868 35083 ft 478 kts 41°
2026-05-06 22:23 25.94170 -153.92671 35080 ft 478 kts 41°
2026-05-06 22:24 25.98876 -153.87437 35079 ft 478 kts 41°
2026-05-06 22:24 26.03542 -153.82241 35077 ft 478 kts 41°
2026-05-06 22:25 26.08254 -153.76988 35082 ft 478 kts 41°
2026-05-06 22:25 26.12921 -153.71778 35082 ft 478 kts 41°
2026-05-06 22:26 26.17621 -153.66526 35078 ft 478 kts 41°
2026-05-06 22:26 26.22315 -153.61275 35082 ft 478 kts 41°
2026-05-06 22:27 26.26985 -153.56044 35073 ft 479 kts 41°
2026-05-06 22:27 26.31688 -153.50769 35076 ft 479 kts 41°
2026-05-06 22:28 26.36359 -153.45523 35083 ft 479 kts 41°
2026-05-06 22:28 26.41059 -153.40240 35075 ft 479 kts 41°
2026-05-06 22:29 26.45725 -153.34987 35072 ft 480 kts 41°
2026-05-06 22:29 26.50427 -153.29688 35076 ft 480 kts 41°
2026-05-06 22:30 26.55125 -153.24386 35074 ft 480 kts 41°
2026-05-06 22:30 26.59799 -153.19105 35083 ft 480 kts 41°
2026-05-06 22:31 26.64510 -153.13776 35075 ft 481 kts 41°
2026-05-06 22:31 26.69186 -153.08480 35074 ft 481 kts 41°
2026-05-06 22:32 26.73897 -153.03137 35068 ft 482 kts 41°
2026-05-06 22:32 26.78603 -152.97792 35085 ft 482 kts 41°
2026-05-06 22:33 26.83296 -152.92458 35072 ft 483 kts 41°
2026-05-06 22:33 26.88015 -152.87085 35064 ft 483 kts 41°
2026-05-06 22:34 26.92709 -152.81735 35060 ft 483 kts 41°
2026-05-06 22:34 26.97425 -152.76353 35079 ft 484 kts 41°
2026-05-06 22:35 27.02127 -152.70980 35071 ft 485 kts 41°
2026-05-06 22:35 27.06856 -152.65570 35068 ft 485 kts 41°
2026-05-06 22:36 27.10786 -152.61067 35061 ft 485 kts 41°
2026-05-06 22:36 27.15482 -152.55682 35064 ft 485 kts 41°
2026-05-06 22:37 27.20200 -152.50264 35058 ft 485 kts 41°
2026-05-06 22:37 27.24892 -152.44870 35067 ft 485 kts 41°
2026-05-06 22:38 27.29613 -152.39435 35062 ft 485 kts 41°
2026-05-06 22:38 27.34326 -152.34001 35059 ft 485 kts 41°
2026-05-06 22:39 27.39010 -152.28594 35063 ft 485 kts 41°
2026-05-06 22:39 27.43733 -152.23137 35066 ft 486 kts 41°
2026-05-06 22:40 27.48425 -152.17707 35055 ft 486 kts 41°
2026-05-06 22:40 27.53141 -152.12242 35054 ft 486 kts 41°
2026-05-06 22:41 27.60192 -152.04058 35053 ft 487 kts 41°
2026-05-06 22:42 27.64910 -151.98573 35077 ft 487 kts 41°
2026-05-06 22:42 27.69610 -151.93102 35061 ft 488 kts 41°
2026-05-06 22:43 27.74339 -151.87590 35061 ft 488 kts 41°
2026-05-06 22:43 27.79066 -151.82072 35047 ft 488 kts 41°
2026-05-06 22:44 27.83764 -151.76580 35052 ft 488 kts 41°
2026-05-06 22:44 27.88494 -151.71045 35053 ft 488 kts 42°
2026-05-06 22:45 27.93218 -151.65510 35053 ft 488 kts 42°
2026-05-06 22:45 27.97906 -151.60007 35050 ft 488 kts 42°
2026-05-06 22:46 28.02619 -151.54469 35049 ft 488 kts 42°
2026-05-06 22:46 28.07330 -151.48927 35048 ft 488 kts 42°
2026-05-06 22:47 28.12005 -151.43419 35052 ft 488 kts 42°
2026-05-06 22:47 28.16711 -151.37867 35047 ft 487 kts 42°
2026-05-06 22:48 28.21401 -151.32326 35051 ft 487 kts 42°
2026-05-06 22:48 28.26076 -151.26795 35048 ft 487 kts 42°
2026-05-06 22:49 28.30771 -151.21234 35049 ft 487 kts 42°
2026-05-06 22:49 28.35441 -151.15695 35043 ft 488 kts 42°
2026-05-06 22:50 28.40140 -151.10113 35044 ft 488 kts 42°
2026-05-06 22:50 28.44805 -151.04564 35040 ft 488 kts 42°
2026-05-06 22:51 28.49513 -150.98957 35059 ft 489 kts 42°
2026-05-06 22:51 28.54196 -150.93373 35041 ft 491 kts 42°
2026-05-06 22:52 28.58917 -150.87733 35039 ft 491 kts 42°
2026-05-06 22:52 28.63604 -150.82126 35040 ft 491 kts 42°
2026-05-06 22:53 28.68312 -150.76487 35049 ft 491 kts 42°
2026-05-06 22:53 28.72995 -150.70871 35042 ft 491 kts 42°
2026-05-06 22:54 28.77705 -150.65214 35041 ft 491 kts 42°
2026-05-06 22:54 28.82408 -150.59557 35035 ft 491 kts 42°
2026-05-06 22:55 28.87082 -150.53929 35033 ft 491 kts 42°
2026-05-06 22:55 28.91780 -150.48262 35031 ft 491 kts 42°
2026-05-06 22:56 28.96489 -150.42573 35058 ft 494 kts 43°
2026-05-06 22:56 29.01191 -150.36889 35027 ft 494 kts 42°
2026-05-06 22:57 29.05891 -150.31197 35025 ft 494 kts 42°
2026-05-06 22:57 29.10618 -150.25462 35034 ft 495 kts 42°
2026-05-06 22:58 29.15338 -150.19727 35032 ft 495 kts 42°
2026-05-06 22:58 29.20032 -150.14018 35024 ft 495 kts 42°
2026-05-06 22:59 29.24754 -150.08265 35023 ft 495 kts 43°
2026-05-06 22:59 29.29446 -150.02541 35030 ft 495 kts 42°
2026-05-06 23:00 29.34162 -149.96779 35035 ft 497 kts 42°
2026-05-06 23:00 29.38914 -149.90964 35020 ft 499 kts 42°
2026-05-06 23:01 29.43638 -149.85178 35012 ft 500 kts 42°
2026-05-06 23:01 29.48385 -149.79352 35023 ft 499 kts 42°
2026-05-06 23:02 29.53130 -149.73520 35022 ft 500 kts 42°
2026-05-06 23:02 29.57860 -149.67699 35011 ft 501 kts 42°
2026-05-06 23:03 29.62606 -149.61849 35015 ft 499 kts 42°
2026-05-06 23:03 29.67316 -149.56033 35015 ft 498 kts 42°
2026-05-06 23:04 29.72045 -149.50188 35015 ft 497 kts 42°
2026-05-06 23:04 29.76724 -149.44395 35007 ft 496 kts 42°
2026-05-06 23:05 29.81432 -149.38558 35001 ft 496 kts 42°
2026-05-06 23:05 29.86130 -149.32724 35030 ft 497 kts 42°
2026-05-06 23:06 29.90824 -149.26888 35000 ft 500 kts 42°
2026-05-06 23:06 29.95554 -149.20996 35004 ft 500 kts 42°
2026-05-06 23:07 30.00287 -149.15091 35008 ft 500 kts 42°
2026-05-06 23:07 30.04993 -149.09213 35010 ft 502 kts 42°
2026-05-06 23:08 30.09733 -149.03292 34995 ft 502 kts 42°
2026-05-06 23:08 30.14460 -148.97381 35009 ft 502 kts 42°
2026-05-06 23:09 30.19206 -148.91438 34993 ft 502 kts 42°
2026-05-06 23:09 30.23942 -148.85496 34998 ft 501 kts 42°
2026-05-06 23:10 30.28642 -148.79592 35000 ft 501 kts 42°
2026-05-06 23:10 30.33370 -148.73645 35004 ft 502 kts 42°
2026-05-06 23:11 30.38076 -148.67715 34993 ft 502 kts 42°